^^
Station Historical Data
 
Daily Summary for November 18, 2017 Units:  Metric    English   Both
« Previous Day
Next Day »
Daily Weekly Monthly Yearly Custom
  Current: High: Low: Average:
Temperature: 8.1 °C 8.1 °C 6.4 °C 6.8 °C
Dew Point: 6.4 °C 6.4 °C 2.9 °C 4.5 °C
Humidity: 89% 89% 78% 85%
Wind Speed: 5.6km/h 16.7km/h 0.0km/h 5km/h
Wind Gust: 5.6km/h 16.7km/h - -
WindNorth - - East
Pressure: 1022.2 hPa 1025.3 hPa 1022.2 hPa -
Precipitation: 1.3 mm      
Historical Graphs
 
 
Tabular Data for November 18, 2017
Time Temperature Dew Point Pressure Wind Wind Speed Wind Gust Humidity Rainfall Rate (Hourly) solar Conditions
00:01 6.5 °C 2.9 °C 1025.3 hPa NW 13.0 km/h 13.0 km/h 78% 0.0 mm WeatherDisplay:10.37 W/m2 BKN
00:06 6.6 °C 3.1 °C 1024.9 hPa NW 13.0 km/h 13.0 km/h 78% 0.0 mm WeatherDisplay:10.37 W/m2 BKN
00:11 6.6 °C 3.1 °C 1024.9 hPa North 7.4 km/h 9.7 km/h 78% 0.0 mm WeatherDisplay:10.37 W/m2 BKN
00:16 6.6 °C 3.1 °C 1024.9 hPa NE 16.7 km/h 16.7 km/h 78% 0.0 mm WeatherDisplay:10.37 W/m2 BKN
00:21 6.7 °C 3.3 °C 1024.9 hPa North 9.3 km/h 9.3 km/h 79% 0.0 mm WeatherDisplay:10.37 W/m2 BKN
00:26 6.7 °C 3.3 °C 1024.9 hPa SE 5.6 km/h 5.6 km/h 79% 0.0 mm WeatherDisplay:10.37 W/m2 BKN
00:31 6.7 °C 3.3 °C 1024.9 hPa East 9.3 km/h 9.3 km/h 79% 0.0 mm WeatherDisplay:10.37 W/m2 BKN
00:36 6.7 °C 3.3 °C 1024.9 hPa SE 16.7 km/h 16.7 km/h 79% 0.0 mm WeatherDisplay:10.37 W/m2 BKN
00:41 6.7 °C 3.5 °C 1024.9 hPa NE 5.6 km/h 5.6 km/h 80% 0.0 mm WeatherDisplay:10.37 W/m2 BKN
00:46 6.7 °C 3.5 °C 1024.6 hPa East 16.7 km/h 16.7 km/h 80% 0.0 mm WeatherDisplay:10.37 W/m2 BKN
00:51 6.7 °C 3.5 °C 1024.6 hPa NE 7.4 km/h 7.4 km/h 80% 0.0 mm WeatherDisplay:10.37 W/m2 BKN
00:56 6.7 °C 3.5 °C 1024.6 hPa ENE 5.6 km/h 5.6 km/h 80% 0.0 mm WeatherDisplay:10.37 W/m2 BKN
01:01 6.7 °C 3.5 °C 1024.6 hPa NE 7.4 km/h   80% 0.0 mm WeatherDisplay:10.37 W/m2 BKN
01:06 6.7 °C 3.7 °C 1024.6 hPa East 5.6 km/h   81% 0.0 mm WeatherDisplay:10.37 W/m2 BKN
01:11 6.7 °C 3.7 °C 1024.9 hPa Calm   2.6 km/h 81% 0.0 mm WeatherDisplay:10.37 W/m2 BKN
01:16 6.7 °C 3.7 °C 1024.9 hPa East 1.9 km/h   81% 0.0 mm WeatherDisplay:10.37 W/m2 BKN
01:21 6.7 °C 3.7 °C 1024.9 hPa East 5.6 km/h   81% 0.0 mm WeatherDisplay:10.37 W/m2 BKN
01:26 6.7 °C 3.7 °C 1024.6 hPa East 5.6 km/h   81% 0.0 mm WeatherDisplay:10.37 W/m2 BKN
01:31 6.7 °C 3.7 °C 1024.6 hPa North 1.9 km/h   81% 0.0 mm WeatherDisplay:10.37 W/m2 BKN
01:36 6.7 °C 3.7 °C 1024.6 hPa NE 1.9 km/h 2.6 km/h 81% 0.0 mm WeatherDisplay:10.37 W/m2 BKN
01:41 6.7 °C 3.7 °C 1024.6 hPa NE 1.9 km/h   81% 0.0 mm WeatherDisplay:10.37 W/m2 BKN
01:46 6.7 °C 3.8 °C 1024.3 hPa East 1.9 km/h   82% 0.0 mm WeatherDisplay:10.37 W/m2 BKN
01:51 6.6 °C 3.7 °C 1024.3 hPa SE 1.9 km/h   82% 0.0 mm WeatherDisplay:10.37 W/m2 BKN
01:56 6.6 °C 3.7 °C 1024.3 hPa East 1.9 km/h 2.6 km/h 82% 0.0 mm WeatherDisplay:10.37 W/m2 BKN
02:01 6.6 °C 3.7 °C 1024.3 hPa East 5.6 km/h 5.6 km/h 82% 0.0 mm WeatherDisplay:10.37 W/m2 BKN
02:06 6.6 °C 3.7 °C 1024.3 hPa East 1.9 km/h   82% 0.0 mm WeatherDisplay:10.37 W/m2 BKN
02:11 6.6 °C 3.7 °C 1024.3 hPa East 5.6 km/h 5.6 km/h 82% 0.0 mm WeatherDisplay:10.37 W/m2 BKN
02:16 6.6 °C 3.7 °C 1024.3 hPa NE 1.9 km/h   82% 0.0 mm WeatherDisplay:10.37 W/m2 BKN
02:21 6.6 °C 3.7 °C 1024.3 hPa ESE 1.9 km/h   82% 0.0 mm WeatherDisplay:10.37 W/m2 -DZ
02:26 6.6 °C 3.7 °C 1024.3 hPa East 1.9 km/h   82% 0.0 mm WeatherDisplay:10.37 W/m2 -DZ
02:31 6.6 °C 3.7 °C 1024.3 hPa Calm     82% 0.0 mm WeatherDisplay:10.37 W/m2 -DZ
02:36 6.6 °C 3.7 °C 1024.3 hPa NE 1.9 km/h   82% 0.0 mm WeatherDisplay:10.37 W/m2 -DZ
02:41 6.6 °C 3.7 °C 1024.3 hPa Calm     82% 0.0 mm WeatherDisplay:10.37 W/m2 -DZ
02:46 6.6 °C 3.7 °C 1024.3 hPa Calm     82% 0.0 mm WeatherDisplay:10.37 W/m2 -DZ
02:51 6.6 °C 3.7 °C 1023.9 hPa Calm     82% 0.0 mm WeatherDisplay:10.37 W/m2 -DZ
02:56 6.6 °C 3.7 °C 1023.9 hPa East 5.6 km/h 5.6 km/h 82% 0.0 mm WeatherDisplay:10.37 W/m2 -DZ
03:01 6.7 °C 3.8 °C 1023.9 hPa East 1.9 km/h 1.9 km/h 82% 0.0 mm WeatherDisplay:10.37 W/m2 -DZ
03:06 6.7 °C 3.8 °C 1023.9 hPa East 9.3 km/h   82% 0.0 mm WeatherDisplay:10.37 W/m2 -DZ
03:11 6.7 °C 3.8 °C 1023.6 hPa NE 5.6 km/h   82% 0.0 mm WeatherDisplay:10.37 W/m2 -DZ
03:17 6.7 °C 3.8 °C 1023.6 hPa NE 1.9 km/h   82% 0.0 mm WeatherDisplay:10.37 W/m2 -DZ
03:20 6.7 °C 3.8 °C 1023.6 hPa Calm   2.6 km/h 82% 0.0 mm WeatherDisplay:10.37 W/m2 -DZ
03:21 6.7 °C 3.8 °C 1023.6 hPa ENE 3.7 km/h 3.7 km/h 82% 0.0 mm WeatherDisplay:10.37 W/m2 -DZ
03:25 6.7 °C 3.8 °C 1023.6 hPa East 5.6 km/h   82% 0.0 mm WeatherDisplay:10.37 W/m2 -DZ
03:26 6.7 °C 3.8 °C 1023.6 hPa East 5.6 km/h   82% 0.0 mm WeatherDisplay:10.37 W/m2 -DZ
03:30 6.7 °C 4.0 °C 1023.6 hPa NE 1.9 km/h   83% 0.0 mm WeatherDisplay:10.37 W/m2 -DZ
03:35 6.7 °C 4.0 °C 1023.6 hPa North 9.3 km/h 9.3 km/h 83% 0.0 mm WeatherDisplay:10.37 W/m2 -DZ
03:41 6.7 °C 4.0 °C 1023.6 hPa East 9.3 km/h 9.3 km/h 83% 0.0 mm WeatherDisplay:10.37 W/m2 -DZ
03:46 6.7 °C 4.0 °C 1023.6 hPa East 5.6 km/h 5.6 km/h 83% 0.0 mm WeatherDisplay:10.37 W/m2 -DZ
03:51 6.6 °C 3.9 °C 1023.2 hPa NE 7.4 km/h 7.4 km/h 83% 0.0 mm WeatherDisplay:10.37 W/m2 -DZ
03:56 6.6 °C 3.9 °C 1023.2 hPa SE 9.3 km/h 9.3 km/h 83% 0.0 mm WeatherDisplay:10.37 W/m2 -DZ
04:01 6.6 °C 3.9 °C 1023.2 hPa SE 8.7 km/h 8.7 km/h 83% 0.0 mm WeatherDisplay:10.37 W/m2 -DZ
04:06 6.6 °C 3.9 °C 1023.2 hPa East 7.4 km/h 7.4 km/h 83% 0.0 mm WeatherDisplay:10.37 W/m2 -DZ
04:11 6.5 °C 3.8 °C 1023.2 hPa East 7.4 km/h 7.4 km/h 83% 0.0 mm WeatherDisplay:10.37 W/m2 -DZ
04:16 6.5 °C 3.8 °C 1023.2 hPa NE 9.3 km/h 9.3 km/h 83% 0.0 mm WeatherDisplay:10.37 W/m2 -DZ
04:21 6.4 °C 3.7 °C 1023.2 hPa East 6.1 km/h 6.1 km/h 83% 0.0 mm WeatherDisplay:10.37 W/m2 -DZ
04:26 6.4 °C 3.9 °C 1023.2 hPa East 13.0 km/h 13.0 km/h 84% 0.0 mm WeatherDisplay:10.37 W/m2 -DZ
04:31 6.4 °C 3.9 °C 1023.2 hPa NE 9.7 km/h 9.7 km/h 84% 0.0 mm WeatherDisplay:10.37 W/m2 -DZ
04:36 6.4 °C 3.9 °C 1022.9 hPa NW 7.4 km/h   84% 0.0 mm WeatherDisplay:10.37 W/m2 -DZ
04:41 6.4 °C 3.9 °C 1023.2 hPa East 7.4 km/h   84% 0.0 mm WeatherDisplay:10.37 W/m2 -DZ
04:46 6.4 °C 3.9 °C 1023.2 hPa East 5.6 km/h   84% 0.0 mm WeatherDisplay:10.37 W/m2 -DZ
04:51 6.4 °C 3.9 °C 1023.2 hPa SE 7.4 km/h   84% 0.0 mm WeatherDisplay:10.37 W/m2 -DZ
04:56 6.4 °C 3.9 °C 1023.2 hPa NE 1.9 km/h 3.5 km/h 84% 0.3 mm WeatherDisplay:10.37 W/m2 -DZ
05:01 6.4 °C 3.9 °C 1023.2 hPa Calm   6.1 km/h 84% 0.3 mm WeatherDisplay:10.37 W/m2 -DZ
05:06 6.4 °C 3.9 °C 1023.2 hPa East 1.9 km/h   84% 0.3 mm WeatherDisplay:10.37 W/m2 -DZ
05:11 6.4 °C 3.9 °C 1022.9 hPa Calm     84% 0.3 mm WeatherDisplay:10.37 W/m2 -DZ
05:16 6.4 °C 3.9 °C 1022.9 hPa East 1.9 km/h   84% 0.3 mm WeatherDisplay:10.37 W/m2 -DZ
05:21 6.4 °C 4.1 °C 1022.9 hPa East 1.9 km/h   85% 0.3 mm WeatherDisplay:10.37 W/m2 -DZ
05:26 6.4 °C 4.1 °C 1022.9 hPa East 3.7 km/h   85% 0.3 mm WeatherDisplay:10.37 W/m2 -DZ
05:31 6.4 °C 4.1 °C 1022.9 hPa North 3.7 km/h   85% 0.3 mm WeatherDisplay:10.37 W/m2 -DZ
05:36 6.4 °C 4.1 °C 1022.6 hPa East 1.9 km/h 1.9 km/h 85% 0.5 mm WeatherDisplay:10.37 W/m2 -DZ
05:41 6.4 °C 4.1 °C 1022.6 hPa East 1.9 km/h 1.9 km/h 85% 0.5 mm WeatherDisplay:10.37 W/m2 -DZ
05:46 6.5 °C 4.2 °C 1022.6 hPa East 5.6 km/h   85% 0.5 mm WeatherDisplay:10.37 W/m2 -DZ
05:51 6.5 °C 4.2 °C 1022.9 hPa East 7.4 km/h   85% 0.5 mm WeatherDisplay:10.37 W/m2 -RA
05:56 6.5 °C 4.2 °C 1022.6 hPa East 3.7 km/h 3.7 km/h 85% 0.3 mm WeatherDisplay:10.37 W/m2 -RA
06:01 6.5 °C 4.2 °C 1022.6 hPa East 5.6 km/h   85% 0.5 mm WeatherDisplay:10.37 W/m2 -RA
06:06 6.5 °C 4.2 °C 1022.9 hPa ENE 1.9 km/h 2.6 km/h 85% 0.5 mm WeatherDisplay:10.37 W/m2 -RA
06:11 6.5 °C 4.2 °C 1022.9 hPa East 1.9 km/h   85% 0.5 mm WeatherDisplay:10.37 W/m2 -RA
06:16 6.6 °C 4.3 °C 1022.9 hPa Calm     85% 0.5 mm WeatherDisplay:10.37 W/m2 -RA
06:21 6.6 °C 4.4 °C 1022.9 hPa East 1.9 km/h   86% 0.5 mm WeatherDisplay:10.37 W/m2 -DZ
06:23 6.6 °C 4.4 °C 1022.9 hPa East 5.6 km/h   86% 0.5 mm WeatherDisplay:10.37 W/m2 -DZ
06:28 6.6 °C 4.4 °C 1022.9 hPa East 1.9 km/h 2.6 km/h 86% 0.5 mm WeatherDisplay:10.37 W/m2 -DZ
06:33 6.6 °C 4.4 °C 1022.9 hPa NW 3.7 km/h   86% 0.5 mm WeatherDisplay:10.37 W/m2 -DZ
06:38 6.6 °C 4.4 °C 1022.9 hPa East 5.6 km/h   86% 0.3 mm WeatherDisplay:10.37 W/m2 -DZ
06:43 6.6 °C 4.4 °C 1022.9 hPa North 1.9 km/h   86% 0.3 mm WeatherDisplay:10.37 W/m2 -DZ
06:48 6.6 °C 4.4 °C 1022.9 hPa North 5.6 km/h 5.6 km/h 86% 0.3 mm WeatherDisplay:10.37 W/m2 -DZ
06:53 6.6 °C 4.4 °C 1022.9 hPa East 5.6 km/h   86% 0.3 mm WeatherDisplay:10.37 W/m2 -DZ
06:58 6.6 °C 4.4 °C 1022.6 hPa East 5.6 km/h   86% 0.3 mm WeatherDisplay:10.37 W/m2 -DZ
07:03 6.6 °C 4.4 °C 1022.9 hPa Calm     86% 0.0 mm WeatherDisplay:10.37 W/m2 -DZ
07:08 6.6 °C 4.4 °C 1022.6 hPa NE 5.6 km/h 5.6 km/h 86% 0.0 mm WeatherDisplay:10.37 W/m2 -DZ
07:13 6.6 °C 4.4 °C 1022.9 hPa West 1.9 km/h 1.9 km/h 86% 0.0 mm WeatherDisplay:10.37 W/m2 -DZ
07:18 6.6 °C 4.4 °C 1022.9 hPa East 1.9 km/h   86% 0.0 mm WeatherDisplay:10.37 W/m2 -DZ
07:23 6.6 °C 4.4 °C 1022.6 hPa North 5.6 km/h   86% 0.0 mm WeatherDisplay:10.37 W/m2 -DZ
07:28 6.6 °C 4.4 °C 1022.6 hPa East 1.9 km/h   86% 0.0 mm WeatherDisplay:10.37 W/m2 -DZ
07:33 6.6 °C 4.4 °C 1022.6 hPa East 3.7 km/h 3.7 km/h 86% 0.0 mm WeatherDisplay:10.37 W/m2 -DZ
07:38 6.6 °C 4.4 °C 1022.9 hPa East 3.7 km/h 3.7 km/h 86% 0.0 mm WeatherDisplay:10.37 W/m2 -DZ
07:43 6.6 °C 4.4 °C 1022.9 hPa North 3.7 km/h   86% 0.0 mm WeatherDisplay:10.37 W/m2 -DZ
07:48 6.6 °C 4.4 °C 1022.9 hPa East 9.3 km/h   86% 0.3 mm WeatherDisplay:10.37 W/m2 -DZ
07:53 6.6 °C 4.6 °C 1022.9 hPa North 1.9 km/h 2.6 km/h 87% 0.3 mm WeatherDisplay:10.37 W/m2 -RA
07:58 6.6 °C 4.6 °C 1022.9 hPa East 1.9 km/h   87% 0.3 mm WeatherDisplay:10.37 W/m2 -RA
08:03 6.6 °C 4.6 °C 1022.9 hPa East 5.6 km/h   87% 0.3 mm WeatherDisplay:10.37 W/m2 -RA
08:08 6.6 °C 4.6 °C 1023.2 hPa East 3.7 km/h   87% 0.3 mm WeatherDisplay:10.37 W/m2 -RA
08:13 6.6 °C 4.6 °C 1023.2 hPa East 7.4 km/h 7.4 km/h 87% 0.3 mm WeatherDisplay:10.37 W/m2 -RA
08:18 6.6 °C 4.6 °C 1023.2 hPa NW 3.7 km/h 3.7 km/h 87% 0.3 mm WeatherDisplay:10.37 W/m2 -RA
08:23 6.6 °C 4.6 °C 1022.9 hPa Calm   2.6 km/h 87% 0.3 mm WeatherDisplay:10.37 W/m2 -RA
08:28 6.6 °C 4.6 °C 1023.2 hPa SW 9.3 km/h 9.3 km/h 87% 0.3 mm WeatherDisplay:10.37 W/m2 -RA
08:33 6.6 °C 4.6 °C 1023.2 hPa East 3.7 km/h 3.7 km/h 87% 0.3 mm WeatherDisplay:10.37 W/m2 -RA
08:38 6.6 °C 4.6 °C 1023.2 hPa East 11.1 km/h 11.1 km/h 87% 0.3 mm WeatherDisplay:10.37 W/m2 -RA
08:43 6.6 °C 4.6 °C 1023.2 hPa East 13.0 km/h 13.0 km/h 87% 0.3 mm WeatherDisplay:10.37 W/m2 -RA
08:48 6.6 °C 4.6 °C 1023.2 hPa NE 9.3 km/h   87% 0.0 mm WeatherDisplay:10.37 W/m2 -RA
08:53 6.6 °C 4.6 °C 1023.2 hPa East 3.7 km/h   87% 0.0 mm WeatherDisplay:10.37 W/m2 -DZ
08:58 6.6 °C 4.6 °C 1023.2 hPa East 7.4 km/h   87% 0.0 mm WeatherDisplay:10.37 W/m2 -DZ
09:03 6.6 °C 4.6 °C 1023.2 hPa NW 13.0 km/h   87% 0.0 mm WeatherDisplay:10.37 W/m2 -DZ
09:08 6.6 °C 4.6 °C 1022.9 hPa East 5.6 km/h   87% 0.0 mm WeatherDisplay:10.37 W/m2 -DZ
09:13 6.6 °C 4.6 °C 1022.9 hPa East 1.9 km/h   87% 0.0 mm WeatherDisplay:10.37 W/m2 -DZ
09:18 6.6 °C 4.6 °C 1022.9 hPa NE 5.6 km/h 5.6 km/h 87% 0.0 mm WeatherDisplay:10.37 W/m2 -DZ
09:23 6.6 °C 4.6 °C 1023.2 hPa East 1.9 km/h   87% 0.0 mm WeatherDisplay:10.37 W/m2 BKN
09:28 6.7 °C 4.8 °C 1022.9 hPa East 3.7 km/h   88% 0.0 mm WeatherDisplay:10.37 W/m2 BKN
09:33 6.7 °C 4.8 °C 1022.9 hPa NE 5.6 km/h 5.6 km/h 88% 0.0 mm WeatherDisplay:10.37 W/m2 BKN
09:38 6.7 °C 4.8 °C 1022.9 hPa SE 9.3 km/h 9.3 km/h 88% 0.0 mm WeatherDisplay:10.37 W/m2 BKN
09:43 6.7 °C 4.8 °C 1022.9 hPa ESE 7.4 km/h   88% 0.0 mm WeatherDisplay:10.37 W/m2 BKN
09:48 6.8 °C 4.9 °C 1022.9 hPa NE 11.1 km/h   88% 0.0 mm WeatherDisplay:10.37 W/m2 BKN
09:53 6.8 °C 4.9 °C 1022.9 hPa ENE 7.4 km/h   88% 0.0 mm WeatherDisplay:10.37 W/m2 BKN
09:58 6.8 °C 4.9 °C 1022.9 hPa East 1.9 km/h 1.9 km/h 88% 0.0 mm WeatherDisplay:10.37 W/m2 BKN
10:03 6.9 °C 5.1 °C 1022.9 hPa East 9.3 km/h 9.3 km/h 88% 0.0 mm WeatherDisplay:10.37 W/m2 BKN
10:08 6.9 °C 5.1 °C 1022.9 hPa East 7.4 km/h 7.4 km/h 88% 0.0 mm WeatherDisplay:10.37 W/m2 BKN
10:13 6.9 °C 5.1 °C 1022.9 hPa North 9.3 km/h 9.3 km/h 88% 0.0 mm WeatherDisplay:10.37 W/m2 BKN
10:18 6.9 °C 5.1 °C 1022.9 hPa East 5.6 km/h   88% 0.0 mm WeatherDisplay:10.37 W/m2 BKN
10:23 6.9 °C 5.1 °C 1022.6 hPa East 1.9 km/h 1.9 km/h 88% 0.0 mm WeatherDisplay:10.37 W/m2 BKN
10:28 7.0 °C 5.0 °C 1022.9 hPa East 9.3 km/h   87% 0.0 mm WeatherDisplay:10.37 W/m2 BKN
10:33 7.0 °C 5.0 °C 1022.6 hPa NW 9.3 km/h 9.3 km/h 87% 0.0 mm WeatherDisplay:10.37 W/m2 BKN
10:38 7.0 °C 5.0 °C 1022.6 hPa East 5.6 km/h   87% 0.0 mm WeatherDisplay:10.37 W/m2 BKN
10:43 7.0 °C 5.0 °C 1022.9 hPa East 5.6 km/h 5.6 km/h 87% 0.0 mm WeatherDisplay:10.37 W/m2 BKN
10:48 7.1 °C 5.2 °C 1022.9 hPa NW 9.3 km/h 9.3 km/h 88% 0.0 mm WeatherDisplay:10.37 W/m2 BKN
10:53 7.1 °C 5.2 °C 1022.9 hPa ENE 5.6 km/h 5.6 km/h 88% 0.0 mm WeatherDisplay:10.37 W/m2 BKN
10:58 7.1 °C 5.2 °C 1022.6 hPa NE 5.6 km/h 5.6 km/h 88% 0.0 mm WeatherDisplay:10.37 W/m2 BKN
11:03 7.1 °C 5.2 °C 1022.9 hPa East 1.9 km/h 2.6 km/h 88% 0.0 mm WeatherDisplay:10.37 W/m2 BKN
11:05 7.1 °C 5.2 °C 1022.6 hPa NE 5.6 km/h   88% 0.0 mm WeatherDisplay:10.37 W/m2 BKN
11:10 7.2 °C 5.3 °C 1022.6 hPa ENE 8.7 km/h 8.7 km/h 88% 0.0 mm WeatherDisplay:10.37 W/m2 BKN
11:15 7.2 °C 5.3 °C 1022.6 hPa North 7.4 km/h   88% 0.0 mm WeatherDisplay:10.37 W/m2 BKN
11:20 7.3 °C 5.4 °C 1022.9 hPa East 3.7 km/h   88% 0.0 mm WeatherDisplay:10.37 W/m2 BKN
11:25 7.3 °C 5.4 °C 1022.6 hPa East 9.3 km/h 9.3 km/h 88% 0.0 mm WeatherDisplay:10.37 W/m2 BKN
11:30 7.3 °C 5.4 °C 1022.6 hPa NE 7.4 km/h 8.7 km/h 88% 0.0 mm WeatherDisplay:10.37 W/m2 BKN
11:35 7.3 °C 5.4 °C 1022.6 hPa East 5.6 km/h   88% 0.0 mm WeatherDisplay:10.37 W/m2 BKN
11:40 7.3 °C 5.4 °C 1022.6 hPa NE 3.7 km/h   88% 0.0 mm WeatherDisplay:10.37 W/m2 BKN
11:45 7.4 °C 5.6 °C 1022.6 hPa East 5.6 km/h   88% 0.0 mm WeatherDisplay:10.37 W/m2 BKN
11:50 7.4 °C 5.6 °C 1022.6 hPa SE 3.7 km/h   88% 0.0 mm WeatherDisplay:10.37 W/m2 BKN
11:55 7.5 °C 5.7 °C 1022.6 hPa Calm     88% 0.0 mm WeatherDisplay:10.37 W/m2 BKN
12:00 7.5 °C 5.7 °C 1022.6 hPa Calm     88% 0.0 mm WeatherDisplay:10.37 W/m2 BKN
12:05 7.6 °C 5.7 °C 1022.6 hPa NE 7.2 km/h 7.2 km/h 88% 0.0 mm WeatherDisplay:10.37 W/m2 BKN
12:10 7.6 °C 5.7 °C 1022.6 hPa Calm     88% 0.0 mm WeatherDisplay:10.37 W/m2 BKN
12:15 7.6 °C 5.9 °C 1022.6 hPa Calm     89% 0.0 mm WeatherDisplay:10.37 W/m2 BKN
12:20 7.7 °C 6.0 °C 1022.6 hPa SE 1.9 km/h   89% 0.0 mm WeatherDisplay:10.37 W/m2 BKN
12:25 7.7 °C 6.0 °C 1022.6 hPa North 6.1 km/h 6.1 km/h 89% 0.0 mm WeatherDisplay:10.37 W/m2 BKN
12:30 7.7 °C 6.0 °C 1022.6 hPa SE 1.9 km/h   89% 0.0 mm WeatherDisplay:10.37 W/m2 BKN
12:35 7.8 °C 6.1 °C 1022.6 hPa East 1.9 km/h 1.9 km/h 89% 0.0 mm WeatherDisplay:10.37 W/m2 BKN
12:40 7.8 °C 6.1 °C 1022.6 hPa East 3.7 km/h   89% 0.0 mm WeatherDisplay:10.37 W/m2 BKN
12:45 7.8 °C 6.1 °C 1022.6 hPa East 3.7 km/h   89% 0.0 mm WeatherDisplay:10.37 W/m2 BKN
12:50 7.9 °C 6.2 °C 1022.6 hPa SE 3.7 km/h   89% 0.0 mm WeatherDisplay:10.37 W/m2 BKN
12:55 7.9 °C 6.2 °C 1022.6 hPa East 2.6 km/h   89% 0.0 mm WeatherDisplay:10.37 W/m2 BKN
13:00 7.9 °C 6.2 °C 1022.6 hPa East 3.7 km/h   89% 0.0 mm WeatherDisplay:10.37 W/m2 BKN
13:01 7.9 °C 6.2 °C 1022.6 hPa East 3.7 km/h   89% 0.0 mm WeatherDisplay:10.37 W/m2 BKN
13:06 7.9 °C 6.2 °C 1022.6 hPa East 3.7 km/h   89% 0.0 mm WeatherDisplay:10.37 W/m2 BKN
13:11 7.9 °C 6.2 °C 1022.6 hPa East 1.9 km/h   89% 0.0 mm WeatherDisplay:10.37 W/m2 BKN
13:16 7.9 °C 6.2 °C 1022.2 hPa Calm     89% 0.0 mm WeatherDisplay:10.37 W/m2 BKN
13:21 8.0 °C 6.1 °C 1022.6 hPa East 3.7 km/h   88% 0.0 mm WeatherDisplay:10.37 W/m2 BKN
13:26 7.9 °C 6.2 °C 1022.6 hPa East 3.7 km/h 3.7 km/h 89% 0.0 mm WeatherDisplay:10.37 W/m2 BKN
13:31 8.0 °C 6.1 °C 1022.2 hPa Calm     88% 0.0 mm WeatherDisplay:10.37 W/m2 BKN
13:36 8.0 °C 6.3 °C 1022.6 hPa NE 5.6 km/h 5.6 km/h 89% 0.0 mm WeatherDisplay:10.37 W/m2 BKN
13:41 8.1 °C 6.4 °C 1022.2 hPa North 5.6 km/h 5.6 km/h 89% 0.0 mm WeatherDisplay:10.37 W/m2 BKN
Earlscliffe, Baily, Howth, Co. Dublin, Ireland
Compliments of Weather Underground - 2.25 mb